Home > Weather > Langenhagen > Past weeks

Flag for Germany Past Weather in Langenhagen, Lower Saxony, Germany — Yesterday and Last 2 Weeks

Now
75 °F

Partly sunny.


Feels Like: 78 °F
Forecast: 62 / 70 °F
Wind: 14 mph from West

Location: Hannover

Current Time: Jul 27, 2016 at 5:25:15 PM

Latest Report: Jul 27, 2016 at 4:50 PM


Visibility: N/A

Pressure: 29.95 "Hg

Humidity: 57%

Dew Point: 59 °F

Location of LangenhagenLocation

Past Weather in Langenhagen — Graph

°F

Langenhagen Temperature Yesterday

Maximum temperature yesterday: 77 °F (at 2:50 PM)
Minimum temperature yesterday: 61 °F (at 4:50 AM)
Average temperature yesterday: 69 °F

High & Low Weather Summary for the Past Weeks

 TemperatureHumidityPressure
High88 °F (Jul 20, 3:20 PM)100% (Jul 13, 2:20 AM)30.24 "Hg (Jul 13, 2:20 AM)
Low52 °F (Jul 16, 2:20 AM)31% (Jul 20, 5:50 PM)29.83 "Hg (Jul 12, 4:50 PM)
Average68 °F75%30.06 "Hg
* Reported Jul 12 4:20 PM — Jul 27 4:20 PM, Langenhagen, Weather by CustomWeather, © 2016

Note: Actual official high and low records may vary slightly from our data, if they occured in-between our weather recording intervals... More about our weather records

Advertising

Langenhagen Weather History for the Previous 24 Hours

Scroll right to see more
 ConditionsComfort  
Time TempWeatherWind HumidityBarometerVisibility
4:20 PM
Wed, Jul 27
73 °FPartly sunny.12 mph61%29.95 "HgN/A
3:50 PM73 °FBroken clouds.10 mph57%29.95 "HgN/A
3:20 PM75 °FScattered clouds.8 mph50%29.95 "HgN/A
2:50 PM75 °FScattered clouds.7 mph54%29.95 "HgN/A
2:20 PM75 °FScattered clouds.8 mph54%29.95 "HgN/A
1:50 PM73 °FScattered clouds.6 mph61%29.98 "HgN/A
1:20 PM73 °FScattered clouds.8 mph65%29.98 "HgN/A
12:50 PM72 °FScattered clouds.7 mph65%29.98 "HgN/A
12:20 PM72 °FBroken clouds.9 mph69%30.01 "HgN/A
11:50 AM70 °FPartly sunny.6 mph78%30.01 "HgN/A
11:20 AM70 °FBroken clouds.6 mph78%30.01 "HgN/A
10:50 AM68 °FBroken clouds.5 mph78%30.01 "HgN/A
10:20 AM66 °FPartly sunny.6 mph83%30.01 "HgN/A
9:50 AM66 °FPartly sunny.2 mph83%30.04 "HgN/A
9:20 AM64 °FPartly sunny.2 mph88%30.04 "HgN/A
8:50 AM64 °FPartly sunny.3 mph88%30.04 "HgN/A
8:20 AM63 °FPartly sunny.3 mph94%30.04 "HgN/A
7:50 AM63 °FPartly sunny.3 mph94%30.04 "HgN/A
7:20 AM61 °FPartly sunny.1 mph100%30.04 "HgN/A
6:50 AM59 °FSunny.2 mph100%30.04 "Hg10 mi
6:20 AM59 °FFog.3 mph100%30.04 "HgN/A
5:50 AM59 °FPartly cloudy.5 mph100%30.04 "HgN/A
5:20 AM61 °FScattered showers. Passing clouds.5 mph94%30.07 "HgN/A
4:50 AM61 °FRain showers. Partly cloudy.5 mph94%30.07 "HgN/A
4:20 AM61 °FSprinkles. Passing clouds.7 mph94%30.07 "HgN/A
3:50 AM61 °FScattered showers. Passing clouds.10 mph94%30.07 "HgN/A
3:20 AM61 °FRain showers. Passing clouds.3 mph94%30.09 "Hg2 mi
2:50 AM61 °FSprinkles. Passing clouds.6 mph94%30.09 "HgN/A
2:20 AM61 °FSprinkles. Partly cloudy.8 mph94%30.07 "HgN/A
1:50 AM63 °FSprinkles. Passing clouds.6 mph94%30.09 "HgN/A
1:20 AM63 °FPassing clouds.3 mph94%30.09 "HgN/A
12:50 AM63 °FLight rain. Clear.3 mph88%30.09 "HgN/A
12:20 AM64 °FClear.8 mph83%30.09 "Hg10 mi
11:50 PM
Tue, Jul 26
63 °FLight rain. Passing clouds.9 mph94%30.09 "HgN/A
11:20 PM70 °FLight rain. Clear.3 mph60%30.09 "HgN/A
10:50 PM70 °FLight rain. Clear.3 mph60%30.09 "HgN/A
10:20 PM70 °FPartly sunny.1 mph57%30.09 "HgN/A
9:50 PM73 °FPartly sunny.8 mph47%30.09 "HgN/A
9:20 PM72 °FSunny.3 mph57%30.09 "Hg10 mi
8:50 PM72 °FSunny.5 mph57%30.09 "Hg10 mi
8:20 PM72 °FSunny.5 mph57%30.09 "Hg10 mi
7:50 PM73 °FSunny.2 mph50%30.09 "Hg10 mi
7:20 PM75 °FPassing clouds.5 mph44%30.09 "HgN/A
6:50 PM75 °FPassing clouds.3 mph41%30.09 "HgN/A
6:20 PM77 °FPassing clouds.5 mph39%30.09 "HgN/A
5:50 PM77 °FSunny.2 mph39%30.09 "Hg10 mi
5:20 PM77 °FSunny.3 mph36%30.09 "Hg10 mi
Weather by CustomWeather, © 2016

See weather overviewHow to use our weather pages